TimeCST,TemperatureF,Dew PointF,Humidity,Sea Level PressureIn,VisibilityMPH,Wind Direction,Wind SpeedMPH,Gust SpeedMPH,PrecipitationIn,Events,Conditions,WindDirDegrees,DateUTC
12:15 AM,5.0,3.2,92,30.19,5.0,Calm,Calm,-,N/A,,Clear,0,2012-12-30 06:15:00
12:35 AM,5.0,1.4,85,30.19,5.0,Calm,Calm,-,N/A,,Clear,0,2012-12-30 06:35:00
12:55 AM,5.0,1.4,85,30.19,5.0,Calm,Calm,-,N/A,,Clear,0,2012-12-30 06:55:00
1:15 AM,5.0,1.4,85,30.21,5.0,Calm,Calm,-,N/A,,Clear,0,2012-12-30 07:15:00
1:35 AM,3.2,1.4,92,30.20,5.0,Calm,Calm,-,N/A,,Clear,0,2012-12-30 07:35:00
1:55 AM,3.2,1.4,92,30.20,7.0,Calm,Calm,-,N/A,,Clear,0,2012-12-30 07:55:00
2:15 AM,5.0,1.4,85,30.21,5.0,Calm,Calm,-,N/A,,Clear,0,2012-12-30 08:15:00
2:35 AM,5.0,1.4,85,30.21,7.0,Calm,Calm,-,N/A,,Clear,0,2012-12-30 08:35:00
2:55 AM,3.2,-0.4,85,30.23,5.0,Calm,Calm,-,N/A,,Clear,0,2012-12-30 08:55:00
3:15 AM,3.2,1.4,92,30.23,5.0,Calm,Calm,-,N/A,,Clear,0,2012-12-30 09:15:00
3:35 AM,3.2,1.4,92,30.23,5.0,Calm,Calm,-,N/A,,Clear,0,2012-12-30 09:35:00
3:55 AM,3.2,-0.4,85,30.22,5.0,Calm,Calm,-,N/A,,Clear,0,2012-12-30 09:55:00
4:15 AM,1.4,-2.2,85,30.22,5.0,Calm,Calm,-,N/A,,Clear,0,2012-12-30 10:15:00
4:35 AM,3.2,-0.4,85,30.22,5.0,Calm,Calm,-,N/A,,Clear,0,2012-12-30 10:35:00
4:55 AM,3.2,-0.4,85,30.22,5.0,Calm,Calm,-,N/A,,Clear,0,2012-12-30 10:55:00
5:15 AM,3.2,-0.4,85,30.22,5.0,Calm,Calm,-,N/A,,Clear,0,2012-12-30 11:15:00
5:35 AM,3.2,-0.4,85,30.22,7.0,Calm,Calm,-,N/A,,Clear,0,2012-12-30 11:35:00
5:55 AM,3.2,-0.4,85,30.23,7.0,Calm,Calm,-,N/A,,Clear,0,2012-12-30 11:55:00
6:15 AM,3.2,-0.4,85,30.23,7.0,Calm,Calm,-,N/A,,Clear,0,2012-12-30 12:15:00
6:35 AM,3.2,-0.4,85,30.24,7.0,Calm,Calm,-,N/A,,Clear,0,2012-12-30 12:35:00
6:55 AM,3.2,-0.4,85,30.25,7.0,Calm,Calm,-,N/A,,Clear,0,2012-12-30 12:55:00
7:15 AM,3.2,-0.4,85,30.24,7.0,Calm,Calm,-,N/A,,Mostly Cloudy,0,2012-12-30 13:15:00
7:35 AM,3.2,-0.4,85,30.24,5.0,Calm,Calm,-,N/A,,Scattered Clouds,0,2012-12-30 13:35:00
7:55 AM,3.2,-0.4,85,30.23,5.0,Calm,Calm,-,N/A,,Clear,0,2012-12-30 13:55:00
8:15 AM,3.2,-0.4,85,30.23,5.0,Calm,Calm,-,N/A,,Clear,0,2012-12-30 14:15:00
8:35 AM,3.2,-0.4,85,30.23,5.0,Calm,Calm,-,N/A,,Clear,0,2012-12-30 14:35:00
8:55 AM,5.0,-0.4,78,30.24,5.0,Calm,Calm,-,N/A,,Haze,0,2012-12-30 14:55:00
9:15 AM,5.0,1.4,85,30.24,5.0,Calm,Calm,-,N/A,,Clear,0,2012-12-30 15:15:00
9:35 AM,6.8,3.2,85,30.24,5.0,Calm,Calm,-,N/A,,Clear,0,2012-12-30 15:35:00
9:55 AM,8.6,5.0,85,30.24,4.0,Calm,Calm,-,N/A,,Clear,0,2012-12-30 15:55:00
10:15 AM,10.4,6.8,85,30.24,5.0,Calm,Calm,-,N/A,,Clear,0,2012-12-30 16:15:00
10:35 AM,10.4,8.6,92,30.23,5.0,South,4.6,-,N/A,,Clear,170,2012-12-30 16:35:00
10:55 AM,12.2,8.6,85,30.23,5.0,South,5.8,-,N/A,,Clear,170,2012-12-30 16:55:00
11:15 AM,14.0,10.4,86,30.22,5.0,SSE,5.8,-,N/A,,Clear,160,2012-12-30 17:15:00
11:35 AM,14.0,12.2,93,30.20,5.0,SSE,6.9,-,N/A,,Clear,150,2012-12-30 17:35:00
11:55 AM,17.6,14.0,86,30.19,5.0,SSE,6.9,-,N/A,,Clear,160,2012-12-30 17:55:00
12:15 PM,19.4,14.0,80,30.17,5.0,SSE,9.2,-,N/A,,Clear,160,2012-12-30 18:15:00
12:35 PM,19.4,15.8,86,30.15,7.0,SSE,9.2,-,N/A,,Clear,150,2012-12-30 18:35:00
12:55 PM,21.2,17.6,86,30.13,7.0,SSE,10.4,-,N/A,,Clear,150,2012-12-30 18:55:00
1:15 PM,23.0,17.6,80,30.12,7.0,SSE,11.5,-,N/A,,Clear,150,2012-12-30 19:15:00
1:35 PM,23.0,17.6,80,30.11,7.0,SSE,10.4,-,N/A,,Clear,150,2012-12-30 19:35:00
1:55 PM,23.0,17.6,80,30.09,7.0,SSE,10.4,-,N/A,,Clear,150,2012-12-30 19:55:00
2:15 PM,23.0,17.6,80,30.08,7.0,SE,10.4,-,N/A,,Clear,140,2012-12-30 20:15:00
2:35 PM,23.0,19.4,86,30.08,7.0,SE,9.2,-,N/A,,Clear,140,2012-12-30 20:35:00
2:55 PM,23.0,19.4,86,30.07,7.0,SE,11.5,-,N/A,,Clear,140,2012-12-30 20:55:00
3:15 PM,24.8,19.4,80,30.06,7.0,SE,12.7,-,N/A,,Clear,140,2012-12-30 21:15:00
3:35 PM,24.8,19.4,80,30.05,7.0,SE,11.5,-,N/A,,Clear,140,2012-12-30 21:35:00
3:55 PM,24.8,19.4,80,30.04,7.0,SE,11.5,-,N/A,,Clear,140,2012-12-30 21:55:00
4:15 PM,24.8,19.4,80,30.03,7.0,SE,12.7,-,N/A,,Clear,140,2012-12-30 22:15:00
4:35 PM,26.6,19.4,74,30.02,10.0,SE,12.7,-,N/A,,Clear,140,2012-12-30 22:35:00
4:55 PM,24.8,19.4,80,30.00,10.0,SE,15.0,-,N/A,,Clear,140,2012-12-30 22:55:00
5:15 PM,24.8,19.4,80,30.00,10.0,SSE,13.8,-,N/A,,Clear,150,2012-12-30 23:15:00
5:35 PM,24.8,19.4,80,30.01,10.0,SSE,11.5,-,N/A,,Clear,150,2012-12-30 23:35:00
5:55 PM,26.6,21.2,80,30.01,10.0,SSE,12.7,-,N/A,,Clear,150,2012-12-30 23:55:00
6:15 PM,26.6,21.2,80,30.01,10.0,SSE,13.8,-,N/A,,Clear,160,2012-12-31 00:15:00
6:35 PM,28.4,23.0,80,30.00,10.0,SSE,15.0,-,N/A,,Clear,160,2012-12-31 00:35:00
6:55 PM,28.4,23.0,80,29.99,10.0,South,16.1,-,N/A,,Clear,170,2012-12-31 00:55:00
7:15 PM,30.2,23.0,75,29.98,10.0,South,16.1,-,N/A,,Clear,170,2012-12-31 01:15:00
7:35 PM,32.0,24.8,75,29.97,10.0,South,18.4,-,N/A,,Clear,180,2012-12-31 01:35:00
7:55 PM,32.0,26.6,80,29.96,10.0,South,20.7,-,N/A,,Clear,180,2012-12-31 01:55:00
8:15 PM,32.0,26.6,80,29.95,10.0,South,21.9,-,N/A,,Clear,180,2012-12-31 02:15:00
8:35 PM,32.0,26.6,80,29.94,10.0,South,20.7,29.9,N/A,,Clear,190,2012-12-31 02:35:00
8:55 PM,32.0,26.6,80,29.95,10.0,South,18.4,-,N/A,,Clear,190,2012-12-31 02:55:00
9:15 PM,32.0,26.6,80,29.94,10.0,SSW,17.3,20.7,N/A,,Clear,200,2012-12-31 03:15:00
9:35 PM,32.0,26.6,80,29.94,10.0,SSW,15.0,-,N/A,,Clear,200,2012-12-31 03:35:00
9:55 PM,32.0,26.6,80,29.95,10.0,SSW,11.5,-,N/A,,Clear,210,2012-12-31 03:55:00
10:15 PM,30.2,24.8,80,29.96,10.0,SSW,10.4,-,N/A,,Clear,210,2012-12-31 04:15:00
10:35 PM,32.0,26.6,80,29.96,10.0,WSW,10.4,16.1,N/A,,Clear,240,2012-12-31 04:35:00
10:55 PM,32.0,26.6,80,29.96,10.0,WSW,15.0,-,N/A,,Clear,250,2012-12-31 04:55:00
11:15 PM,32.0,26.6,80,29.96,10.0,West,12.7,-,N/A,,Clear,260,2012-12-31 05:15:00
11:35 PM,32.0,26.6,80,29.97,10.0,West,11.5,-,N/A,,Clear,260,2012-12-31 05:35:00
11:55 PM,32.0,24.8,75,29.97,10.0,West,10.4,-,N/A,,Clear,260,2012-12-31 05:55:00